Time,TemperatureF,DewpointF,PressureIn,WindDirection,WindDirectionDegrees,WindSpeedMPH,WindSpeedGustMPH,Humidity,HourlyPrecipIn,Conditions,Clouds,dailyrainin,SoftwareType,DateUTC
2013-02-03 00:00:00,22.6,-2.8,29.68,WSW,256,0.0,0.0,32,0.00,,---,0.00,VWS V13.01,2013-02-03 05:00:00,
2013-02-03 00:01:00,22.6,-2.8,29.68,WSW,256,0.0,0.0,32,0.00,,---,0.00,VWS V13.01,2013-02-03 05:01:00,
2013-02-03 00:06:00,22.6,-2.8,29.68,West,261,0.0,0.0,32,0.00,,---,0.00,VWS V13.01,2013-02-03 05:06:00,
2013-02-03 00:11:00,22.6,-2.8,29.68,West,261,0.0,0.0,32,0.00,,---,0.00,VWS V13.01,2013-02-03 05:11:00,
2013-02-03 00:16:00,22.5,-2.9,29.68,West,261,0.0,0.0,32,0.00,,---,0.00,VWS V13.01,2013-02-03 05:16:00,
2013-02-03 00:21:00,22.5,-2.9,29.68,West,261,0.0,0.0,32,0.00,,---,0.00,VWS V13.01,2013-02-03 05:21:00,
2013-02-03 00:27:00,22.5,-2.9,29.68,West,261,0.0,0.0,32,0.00,,---,0.00,VWS V13.01,2013-02-03 05:27:00,
2013-02-03 00:32:00,22.5,-2.9,29.65,West,261,0.0,0.0,32,0.00,,---,0.00,VWS V13.01,2013-02-03 05:32:00,
2013-02-03 00:37:00,22.5,-2.9,29.65,West,261,0.0,0.0,32,0.00,,---,0.00,VWS V13.01,2013-02-03 05:37:00,
2013-02-03 00:42:00,22.5,-2.3,29.65,West,261,0.0,0.0,33,0.00,,---,0.00,VWS V13.01,2013-02-03 05:42:00,
2013-02-03 00:47:00,22.3,-3.1,29.65,West,261,0.0,0.0,32,0.00,,---,0.00,VWS V13.01,2013-02-03 05:47:00,
2013-02-03 00:52:00,22.3,-2.4,29.65,West,261,0.0,0.0,33,0.00,,---,0.00,VWS V13.01,2013-02-03 05:52:00,
2013-02-03 00:57:00,22.3,-2.4,29.65,West,261,0.0,0.0,33,0.00,,---,0.00,VWS V13.01,2013-02-03 05:57:00,
2013-02-03 01:02:00,22.1,-2.6,29.65,West,261,0.0,0.0,33,0.00,,---,0.00,VWS V13.01,2013-02-03 06:02:00,
2013-02-03 01:08:00,22.1,-2.6,29.65,West,261,0.0,0.0,33,0.00,,---,0.00,VWS V13.01,2013-02-03 06:08:00,
2013-02-03 01:13:00,21.9,-2.8,29.65,West,261,0.0,0.0,33,0.00,,---,0.00,VWS V13.01,2013-02-03 06:13:00,
2013-02-03 01:18:00,21.9,-2.8,29.65,West,261,0.0,0.0,33,0.00,,---,0.00,VWS V13.01,2013-02-03 06:18:00,
2013-02-03 01:23:00,21.7,-2.9,29.65,West,261,0.0,0.0,33,0.00,,---,0.00,VWS V13.01,2013-02-03 06:23:00,
2013-02-03 01:28:00,21.7,-2.9,29.65,West,261,0.0,0.0,33,0.00,,---,0.00,VWS V13.01,2013-02-03 06:28:00,
2013-02-03 01:33:00,21.6,-3.1,29.65,West,261,0.0,0.0,33,0.00,,---,0.00,VWS V13.01,2013-02-03 06:33:00,
2013-02-03 01:38:00,21.7,-2.9,29.65,West,261,0.0,0.0,33,0.00,,---,0.00,VWS V13.01,2013-02-03 06:38:00,
2013-02-03 01:43:00,21.9,-2.8,29.65,West,261,0.0,0.0,33,0.00,,---,0.00,VWS V13.01,2013-02-03 06:43:00,
2013-02-03 01:48:00,21.9,-2.8,29.65,West,261,0.0,0.0,33,0.00,,---,0.00,VWS V13.01,2013-02-03 06:48:00,
2013-02-03 01:54:00,22.1,-2.6,29.65,West,261,0.0,0.0,33,0.00,,---,0.00,VWS V13.01,2013-02-03 06:54:00,
2013-02-03 01:59:00,22.1,-2.6,29.65,West,261,0.0,0.0,33,0.00,,---,0.00,VWS V13.01,2013-02-03 06:59:00,
2013-02-03 02:04:00,22.1,-2.6,29.62,West,261,0.0,0.0,33,0.00,,---,0.00,VWS V13.01,2013-02-03 07:04:00,
2013-02-03 02:09:00,21.9,-2.8,29.62,West,261,0.0,0.0,33,0.00,,---,0.00,VWS V13.01,2013-02-03 07:09:00,
2013-02-03 02:14:00,21.9,-2.8,29.62,West,261,0.0,0.0,33,0.00,,---,0.00,VWS V13.01,2013-02-03 07:14:00,
2013-02-03 02:19:00,21.9,-2.8,29.62,West,261,0.0,0.0,33,0.00,,---,0.00,VWS V13.01,2013-02-03 07:19:00,
2013-02-03 02:24:00,21.9,-2.8,29.62,West,261,0.0,0.0,33,0.00,,---,0.00,VWS V13.01,2013-02-03 07:24:00,
2013-02-03 02:29:00,21.7,-2.9,29.62,West,261,0.0,0.0,33,0.00,,---,0.00,VWS V13.01,2013-02-03 07:29:00,
2013-02-03 02:35:00,21.7,-2.9,29.62,West,261,0.0,0.0,33,0.00,,---,0.00,VWS V13.01,2013-02-03 07:35:00,
2013-02-03 02:40:00,21.9,-2.1,29.62,West,261,0.0,0.0,34,0.00,,---,0.00,VWS V13.01,2013-02-03 07:40:00,
2013-02-03 02:45:00,21.9,-2.1,29.62,West,261,0.0,0.0,34,0.00,,---,0.00,VWS V13.01,2013-02-03 07:45:00,
2013-02-03 02:50:00,21.9,-2.1,29.62,West,261,0.0,0.0,34,0.00,,---,0.00,VWS V13.01,2013-02-03 07:50:00,
2013-02-03 02:55:00,21.9,-2.1,29.62,West,261,0.0,0.0,34,0.00,,---,0.00,VWS V13.01,2013-02-03 07:55:00,
2013-02-03 03:00:00,21.9,-2.1,29.62,West,261,0.0,0.0,34,0.00,,---,0.00,VWS V13.01,2013-02-03 08:00:00,
2013-02-03 03:05:00,21.7,-2.3,29.62,West,261,0.0,0.0,34,0.00,,---,0.00,VWS V13.01,2013-02-03 08:05:00,
2013-02-03 03:10:00,21.7,-2.3,29.62,West,261,0.0,0.0,34,0.00,,---,0.00,VWS V13.01,2013-02-03 08:10:00,
2013-02-03 03:16:00,21.7,-2.3,29.59,West,261,0.0,0.0,34,0.00,,---,0.00,VWS V13.01,2013-02-03 08:16:00,
2013-02-03 03:21:00,21.6,-2.5,29.59,West,261,0.0,0.0,34,0.00,,---,0.00,VWS V13.01,2013-02-03 08:21:00,
2013-02-03 03:26:00,21.4,-2.6,29.59,West,261,0.0,0.0,34,0.00,,---,0.00,VWS V13.01,2013-02-03 08:26:00,
2013-02-03 03:31:00,21.4,-2.6,29.59,West,261,0.0,0.0,34,0.00,,---,0.00,VWS V13.01,2013-02-03 08:31:00,
2013-02-03 03:36:00,21.2,-2.8,29.59,West,261,0.0,0.0,34,0.00,,---,0.00,VWS V13.01,2013-02-03 08:36:00,
2013-02-03 03:41:00,21.2,-2.8,29.59,West,261,0.0,0.0,34,0.00,,---,0.00,VWS V13.01,2013-02-03 08:41:00,
2013-02-03 03:46:00,21.2,-2.2,29.59,West,261,0.0,0.0,35,0.00,,---,0.00,VWS V13.01,2013-02-03 08:46:00,
2013-02-03 03:51:00,21.2,-2.2,29.59,West,261,0.0,0.0,35,0.00,,---,0.00,VWS V13.01,2013-02-03 08:51:00,
2013-02-03 03:56:00,21.2,-2.8,29.59,West,261,0.0,0.0,34,0.00,,---,0.00,VWS V13.01,2013-02-03 08:56:00,
2013-02-03 04:02:00,21.2,-2.8,29.59,West,261,0.0,0.0,34,0.00,,---,0.00,VWS V13.01,2013-02-03 09:02:00,
2013-02-03 04:07:00,21.0,-2.3,29.59,West,261,0.0,0.0,35,0.00,,---,0.00,VWS V13.01,2013-02-03 09:07:00,
2013-02-03 04:12:00,21.2,-2.2,29.59,West,261,0.0,0.0,35,0.00,,---,0.00,VWS V13.01,2013-02-03 09:12:00,
2013-02-03 04:17:00,21.2,-2.2,29.59,West,261,0.0,0.0,35,0.00,,---,0.00,VWS V13.01,2013-02-03 09:17:00,
2013-02-03 04:22:00,21.0,-2.3,29.59,West,261,0.0,0.0,35,0.00,,---,0.00,VWS V13.01,2013-02-03 09:22:00,
2013-02-03 04:27:00,21.0,-2.3,29.59,West,261,0.0,0.0,35,0.00,,---,0.00,VWS V13.01,2013-02-03 09:27:00,
2013-02-03 04:32:00,20.8,-2.5,29.59,West,261,0.0,0.0,35,0.00,,---,0.00,VWS V13.01,2013-02-03 09:32:00,
2013-02-03 04:37:00,20.7,-2.7,29.59,West,261,0.0,0.0,35,0.00,,---,0.00,VWS V13.01,2013-02-03 09:37:00,
2013-02-03 04:43:00,20.5,-2.8,29.59,West,261,0.0,0.0,35,0.00,,---,0.00,VWS V13.01,2013-02-03 09:43:00,
2013-02-03 04:48:00,20.3,-3.0,29.59,West,261,0.0,0.0,35,0.00,,---,0.00,VWS V13.01,2013-02-03 09:48:00,
2013-02-03 04:53:00,19.9,-3.3,29.59,West,261,0.0,0.0,35,0.00,,---,0.00,VWS V13.01,2013-02-03 09:53:00,
2013-02-03 04:58:00,19.6,-3.6,29.59,West,261,0.0,0.0,35,0.00,,---,0.00,VWS V13.01,2013-02-03 09:58:00,
2013-02-03 05:03:00,19.4,-3.2,29.57,West,261,0.0,0.0,36,0.00,,---,0.00,VWS V13.01,2013-02-03 10:03:00,
2013-02-03 05:08:00,19.2,-3.3,29.57,West,261,0.0,0.0,36,0.00,,---,0.00,VWS V13.01,2013-02-03 10:08:00,
2013-02-03 05:13:00,19.0,-3.5,29.57,West,261,0.0,0.0,36,0.00,,---,0.00,VWS V13.01,2013-02-03 10:13:00,
2013-02-03 05:18:00,18.7,-3.8,29.57,West,261,0.0,0.0,36,0.00,,---,0.00,VWS V13.01,2013-02-03 10:18:00,
2013-02-03 05:24:00,18.5,-3.4,29.57,West,261,0.0,0.0,37,0.00,,---,0.00,VWS V13.01,2013-02-03 10:24:00,
2013-02-03 05:29:00,18.3,-3.6,29.57,West,261,0.0,0.0,37,0.00,,---,0.00,VWS V13.01,2013-02-03 10:29:00,
2013-02-03 05:34:00,18.3,-3.6,29.57,West,261,0.0,0.0,37,0.00,,---,0.00,VWS V13.01,2013-02-03 10:34:00,
2013-02-03 05:39:00,18.1,-3.7,29.57,West,261,0.0,0.0,37,0.00,,---,0.00,VWS V13.01,2013-02-03 10:39:00,
2013-02-03 05:44:00,18.1,-3.7,29.57,West,261,0.0,0.0,37,0.00,,---,0.00,VWS V13.01,2013-02-03 10:44:00,
2013-02-03 05:49:00,18.0,-3.9,29.57,West,261,0.0,0.0,37,0.00,,---,0.00,VWS V13.01,2013-02-03 10:49:00,
2013-02-03 05:54:00,18.0,-3.9,29.57,West,261,0.0,0.0,37,0.00,,---,0.00,VWS V13.01,2013-02-03 10:54:00,
2013-02-03 06:00:00,17.8,-4.1,29.57,West,261,0.0,0.0,37,0.00,,---,0.00,VWS V13.01,2013-02-03 11:00:00,
2013-02-03 06:05:00,17.6,-3.7,29.57,West,261,0.0,0.0,38,0.00,,---,0.00,VWS V13.01,2013-02-03 11:05:00,
2013-02-03 06:10:00,17.6,-3.7,29.57,West,261,0.0,0.0,38,0.00,,---,0.00,VWS V13.01,2013-02-03 11:10:00,
2013-02-03 06:15:00,17.4,-3.8,29.57,West,261,0.0,0.0,38,0.00,,---,0.00,VWS V13.01,2013-02-03 11:15:00,
2013-02-03 06:20:00,17.6,-3.7,29.57,West,261,0.0,0.0,38,0.00,,---,0.00,VWS V13.01,2013-02-03 11:20:00,
2013-02-03 06:25:00,17.4,-3.8,29.57,West,261,0.0,0.0,38,0.00,,---,0.00,VWS V13.01,2013-02-03 11:25:00,
2013-02-03 06:30:00,17.1,-4.2,29.57,West,261,0.0,0.0,38,0.00,,---,0.00,VWS V13.01,2013-02-03 11:30:00,
2013-02-03 06:35:00,17.1,-4.2,29.57,West,261,0.0,0.0,38,0.00,,---,0.00,VWS V13.01,2013-02-03 11:35:00,
2013-02-03 06:41:00,17.1,-4.2,29.57,West,261,0.0,0.0,38,0.00,,---,0.00,VWS V13.01,2013-02-03 11:41:00,
2013-02-03 06:46:00,16.9,-4.3,29.57,West,261,0.0,0.0,38,0.00,,---,0.00,VWS V13.01,2013-02-03 11:46:00,
2013-02-03 06:51:00,16.9,-4.3,29.57,West,261,0.0,0.0,38,0.00,,---,0.00,VWS V13.01,2013-02-03 11:51:00,
2013-02-03 06:56:00,16.7,-4.5,29.57,West,261,0.0,0.0,38,0.00,,---,0.00,VWS V13.01,2013-02-03 11:56:00,
2013-02-03 07:01:00,16.5,-4.7,29.59,West,261,0.0,0.0,38,0.00,,---,0.00,VWS V13.01,2013-02-03 12:01:00,
2013-02-03 07:06:00,16.5,-4.7,29.59,West,261,0.0,0.0,38,0.00,,---,0.00,VWS V13.01,2013-02-03 12:06:00,
2013-02-03 07:11:00,16.3,-4.8,29.59,West,261,0.0,0.0,38,0.00,,---,0.00,VWS V13.01,2013-02-03 12:11:00,
2013-02-03 07:16:00,16.2,-5.0,29.59,West,261,0.0,0.0,38,0.00,,---,0.00,VWS V13.01,2013-02-03 12:16:00,
2013-02-03 07:21:00,16.2,-4.4,29.59,West,261,0.0,0.0,39,0.00,,---,0.00,VWS V13.01,2013-02-03 12:21:00,
2013-02-03 07:26:00,16.2,-5.0,29.59,West,261,0.0,0.0,38,0.00,,---,0.00,VWS V13.01,2013-02-03 12:26:00,
2013-02-03 07:32:00,16.2,-5.0,29.59,West,261,0.0,0.0,38,0.00,,---,0.00,VWS V13.01,2013-02-03 12:32:00,
2013-02-03 07:37:00,16.2,-4.4,29.59,West,261,0.0,0.0,39,0.00,,---,0.00,VWS V13.01,2013-02-03 12:37:00,
2013-02-03 07:42:00,16.3,-4.8,29.59,West,261,0.0,0.0,38,0.00,,---,0.00,VWS V13.01,2013-02-03 12:42:00,
2013-02-03 07:47:00,16.5,-4.7,29.59,West,261,0.0,0.0,38,0.00,,---,0.00,VWS V13.01,2013-02-03 12:47:00,
2013-02-03 07:52:00,16.7,-4.5,29.59,West,261,0.0,0.0,38,0.00,,---,0.00,VWS V13.01,2013-02-03 12:52:00,
2013-02-03 07:57:00,16.9,-4.3,29.59,West,261,0.0,0.0,38,0.00,,---,0.00,VWS V13.01,2013-02-03 12:57:00,
2013-02-03 08:02:00,17.1,-4.2,29.59,West,261,0.0,0.0,38,0.00,,---,0.00,VWS V13.01,2013-02-03 13:02:00,
2013-02-03 08:07:00,17.4,-3.8,29.59,West,261,0.0,0.0,38,0.00,,---,0.00,VWS V13.01,2013-02-03 13:07:00,
2013-02-03 08:13:00,18.1,-3.7,29.59,West,261,0.0,0.0,37,0.00,,---,0.00,VWS V13.01,2013-02-03 13:13:00,
2013-02-03 08:18:00,18.7,-3.3,29.59,West,261,0.0,0.0,37,0.00,,---,0.00,VWS V13.01,2013-02-03 13:18:00,
2013-02-03 08:23:00,19.4,-2.6,29.59,West,261,0.0,0.0,37,0.00,,---,0.00,VWS V13.01,2013-02-03 13:23:00,
2013-02-03 08:28:00,20.1,-2.0,29.59,West,261,0.0,0.0,37,0.00,,---,0.00,VWS V13.01,2013-02-03 13:28:00,
2013-02-03 08:33:00,20.8,-1.9,29.57,West,261,0.0,0.0,36,0.00,,---,0.00,VWS V13.01,2013-02-03 13:33:00,
2013-02-03 08:38:00,21.6,-1.2,29.57,West,261,0.0,0.0,36,0.00,,---,0.00,VWS V13.01,2013-02-03 13:38:00,
2013-02-03 08:43:00,23.0,0.0,29.57,West,261,0.0,0.0,36,0.00,,---,0.00,VWS V13.01,2013-02-03 13:43:00,
2013-02-03 08:48:00,22.8,-1.3,29.57,West,261,0.0,0.0,34,0.00,,---,0.00,VWS V13.01,2013-02-03 13:48:00,
2013-02-03 08:53:00,22.6,-1.5,29.57,West,261,0.0,0.0,34,0.00,,---,0.00,VWS V13.01,2013-02-03 13:53:00,
2013-02-03 08:59:00,22.8,-2.0,29.57,West,261,0.0,0.0,33,0.00,,---,0.00,VWS V13.01,2013-02-03 13:59:00,
2013-02-03 09:04:00,22.8,-2.0,29.57,NE,49,0.0,0.0,33,0.00,,---,0.00,VWS V13.01,2013-02-03 14:04:00,
2013-02-03 09:09:00,22.8,-2.6,29.57,NE,49,0.0,0.0,32,0.00,,---,0.00,VWS V13.01,2013-02-03 14:09:00,
2013-02-03 09:14:00,23.4,-2.1,29.57,NE,49,0.0,0.0,32,0.00,,---,0.00,VWS V13.01,2013-02-03 14:14:00,
2013-02-03 09:19:00,23.7,-1.8,29.57,NE,49,0.0,0.0,32,0.00,,---,0.00,VWS V13.01,2013-02-03 14:19:00,
2013-02-03 09:24:00,24.4,-3.2,29.57,NE,46,0.0,0.0,29,0.00,,---,0.00,VWS V13.01,2013-02-03 14:24:00,
2013-02-03 09:29:00,25.3,-4.7,29.57,NE,44,0.0,0.0,26,0.00,,---,0.00,VWS V13.01,2013-02-03 14:29:00,
2013-02-03 09:34:00,26.2,-4.0,29.57,ENE,65,0.0,0.0,26,0.00,,---,0.00,VWS V13.01,2013-02-03 14:34:00,
2013-02-03 09:39:00,27.0,-5.9,29.57,NE,42,0.0,0.0,23,0.00,,---,0.00,VWS V13.01,2013-02-03 14:39:00,
2013-02-03 09:45:00,28.6,-4.5,29.57,NNW,334,0.0,0.0,23,0.00,,---,0.00,VWS V13.01,2013-02-03 14:45:00,
2013-02-03 09:50:00,32.5,-4.1,29.57,NNW,334,0.0,0.0,20,0.00,,---,0.00,VWS V13.01,2013-02-03 14:50:00,
2013-02-03 09:55:00,30.9,-5.4,29.57,NNW,335,0.0,0.0,20,0.00,,---,0.00,VWS V13.01,2013-02-03 14:55:00,
2013-02-03 10:00:00,29.5,-6.6,29.57,North,350,0.0,0.0,20,0.00,,---,0.00,VWS V13.01,2013-02-03 15:00:00,
2013-02-03 10:05:00,30.7,-5.6,29.57,ENE,75,0.0,0.0,20,0.00,,---,0.00,VWS V13.01,2013-02-03 15:05:00,
2013-02-03 10:10:00,30.6,-5.7,29.57,SE,137,0.0,2.7,20,0.00,,---,0.00,VWS V13.01,2013-02-03 15:10:00,
2013-02-03 10:15:00,30.4,-5.9,29.54,ENE,77,0.0,2.7,20,0.00,,---,0.00,VWS V13.01,2013-02-03 15:15:00,
2013-02-03 10:21:00,32.2,-4.4,29.54,East,85,0.0,0.0,20,0.00,,---,0.00,VWS V13.01,2013-02-03 15:21:00,
2013-02-03 10:26:00,33.3,-3.5,29.54,NNW,334,0.0,0.0,20,0.00,,---,0.00,VWS V13.01,2013-02-03 15:26:00,
2013-02-03 10:31:00,35.6,-2.6,29.54,East,101,0.0,0.0,19,0.00,,---,0.00,VWS V13.01,2013-02-03 15:31:00,
2013-02-03 10:36:00,35.1,-2.0,29.54,East,88,0.0,0.0,20,0.00,,---,0.00,VWS V13.01,2013-02-03 15:36:00,
2013-02-03 10:41:00,35.4,-1.6,29.54,East,84,0.0,0.0,20,0.00,,---,0.00,VWS V13.01,2013-02-03 15:41:00,
2013-02-03 10:46:00,35.1,-2.0,29.54,NE,38,0.0,3.1,20,0.00,,---,0.00,VWS V13.01,2013-02-03 15:46:00,
2013-02-03 10:51:00,34.0,-2.9,29.54,NNE,16,0.0,3.1,20,0.00,,---,0.00,VWS V13.01,2013-02-03 15:51:00,
2013-02-03 10:56:00,34.9,-2.1,29.54,ESE,119,0.0,3.1,20,0.00,,---,0.00,VWS V13.01,2013-02-03 15:56:00,
2013-02-03 11:02:00,36.5,-1.8,29.54,SE,142,0.0,0.0,19,0.00,,---,0.00,VWS V13.01,2013-02-03 16:02:00,
2013-02-03 11:07:00,35.6,-2.6,29.54,NW,309,0.0,0.0,19,0.00,,---,0.00,VWS V13.01,2013-02-03 16:07:00,
2013-02-03 11:12:00,36.7,-1.7,29.54,North,357,0.0,0.0,19,0.00,,---,0.00,VWS V13.01,2013-02-03 16:12:00,
2013-02-03 11:17:00,37.8,-0.8,29.51,North,357,0.0,0.0,19,0.00,,---,0.00,VWS V13.01,2013-02-03 16:17:00,
2013-02-03 11:22:00,37.4,-1.1,29.51,North,357,0.0,0.0,19,0.00,,---,0.00,VWS V13.01,2013-02-03 16:22:00,
2013-02-03 11:27:00,37.8,-0.8,29.51,SE,131,0.0,3.6,19,0.00,,---,0.00,VWS V13.01,2013-02-03 16:27:00,
2013-02-03 11:32:00,39.4,-0.6,29.51,SE,138,0.0,3.6,18,0.00,,---,0.00,VWS V13.01,2013-02-03 16:32:00,
2013-02-03 11:37:00,41.9,1.5,29.51,ESE,121,0.0,3.6,18,0.00,,---,0.00,VWS V13.01,2013-02-03 16:37:00,
2013-02-03 11:43:00,45.5,3.2,29.51,West,270,2.7,2.7,17,0.00,,---,0.00,VWS V13.01,2013-02-03 16:43:00,
2013-02-03 11:48:00,44.4,3.6,29.51,NW,314,0.0,2.7,18,0.00,,---,0.00,VWS V13.01,2013-02-03 16:48:00,
2013-02-03 11:53:00,42.3,1.8,29.51,North,353,0.0,3.6,18,0.00,,---,0.00,VWS V13.01,2013-02-03 16:53:00,
2013-02-03 11:58:00,37.6,-0.9,29.51,WNW,300,0.0,5.6,19,0.00,,---,0.00,VWS V13.01,2013-02-03 16:58:00,
2013-02-03 12:03:00,35.8,-2.4,29.48,NW,314,0.0,0.0,19,0.00,,---,0.00,VWS V13.01,2013-02-03 17:03:00,
2013-02-03 12:08:00,35.8,-2.4,29.48,WNW,291,0.0,0.0,19,0.00,,---,0.00,VWS V13.01,2013-02-03 17:08:00,
2013-02-03 12:14:00,34.0,-2.9,29.48,West,273,0.0,0.0,20,0.00,,---,0.00,VWS V13.01,2013-02-03 17:14:00,
2013-02-03 12:19:00,34.5,-2.4,29.48,WNW,298,0.0,0.0,20,0.00,,---,0.00,VWS V13.01,2013-02-03 17:19:00,
2013-02-03 12:24:00,33.6,-3.2,29.48,NNE,33,0.0,0.0,20,0.00,,---,0.00,VWS V13.01,2013-02-03 17:24:00,
2013-02-03 12:29:00,33.6,-3.2,29.48,NNE,13,0.0,0.0,20,0.00,,---,0.00,VWS V13.01,2013-02-03 17:29:00,
2013-02-03 12:34:00,34.2,-2.7,29.48,ENE,64,0.0,0.0,20,0.00,,---,0.00,VWS V13.01,2013-02-03 17:34:00,
2013-02-03 12:39:00,34.5,-2.4,29.48,NNW,346,0.0,3.1,20,0.00,,---,0.00,VWS V13.01,2013-02-03 17:39:00,
2013-02-03 12:45:00,35.1,-2.0,29.48,North,353,3.1,4.0,20,0.00,,---,0.00,VWS V13.01,2013-02-03 17:45:00,
2013-02-03 12:50:00,35.4,-1.6,29.45,NNE,18,0.0,5.6,20,0.00,,---,0.00,VWS V13.01,2013-02-03 17:50:00,
2013-02-03 12:55:00,35.4,-1.6,29.45,NE,46,0.0,5.6,20,0.00,,---,0.00,VWS V13.01,2013-02-03 17:55:00,
2013-02-03 13:00:00,35.4,-1.6,29.45,NW,311,4.5,4.7,20,0.00,,---,0.00,VWS V13.01,2013-02-03 18:00:00,
2013-02-03 13:05:00,35.1,-2.0,29.45,NW,310,0.0,4.7,20,0.00,,---,0.00,VWS V13.01,2013-02-03 18:05:00,
2013-02-03 13:10:00,34.9,-2.1,29.45,North,357,3.1,5.6,20,0.00,,---,0.00,VWS V13.01,2013-02-03 18:10:00,
2013-02-03 13:16:00,35.1,-2.0,29.45,NNW,346,2.7,5.6,20,0.00,,---,0.00,VWS V13.01,2013-02-03 18:16:00,
2013-02-03 13:21:00,34.9,-2.1,29.45,North,353,0.0,2.7,20,0.00,,---,0.00,VWS V13.01,2013-02-03 18:21:00,
2013-02-03 13:26:00,34.9,-2.1,29.45,North,353,0.0,4.5,20,0.00,,---,0.00,VWS V13.01,2013-02-03 18:26:00,
2013-02-03 13:31:00,33.8,-3.0,29.42,NNW,346,0.0,4.5,20,0.00,,---,0.00,VWS V13.01,2013-02-03 18:31:00,
2013-02-03 13:36:00,34.3,-2.6,29.42,NNW,344,0.0,4.5,20,0.00,,---,0.00,VWS V13.01,2013-02-03 18:36:00,
2013-02-03 13:41:00,34.0,-2.9,29.42,WNW,286,0.0,0.0,20,0.00,,---,0.00,VWS V13.01,2013-02-03 18:41:00,
2013-02-03 13:46:00,33.3,-3.5,29.42,WNW,295,0.0,5.6,20,0.00,,---,0.00,VWS V13.01,2013-02-03 18:46:00,
2013-02-03 13:52:00,32.5,-4.1,29.42,North,353,0.0,5.6,20,0.00,,---,0.00,VWS V13.01,2013-02-03 18:52:00,
2013-02-03 13:57:00,31.3,-7.3,29.42,West,274,0.0,6.9,18,0.00,,---,0.00,VWS V13.01,2013-02-03 18:57:00,
2013-02-03 14:02:00,30.9,-7.6,29.42,NW,310,0.0,4.5,18,0.00,,---,0.00,VWS V13.01,2013-02-03 19:02:00,
2013-02-03 14:07:00,30.9,-7.6,29.42,NNW,330,0.0,4.5,18,0.00,,---,0.00,VWS V13.01,2013-02-03 19:07:00,
2013-02-03 14:12:00,31.1,-7.4,29.42,NNW,332,0.0,4.5,18,0.00,,---,0.00,VWS V13.01,2013-02-03 19:12:00,
2013-02-03 14:17:00,31.3,-7.3,29.42,NNW,340,0.0,4.5,18,0.00,,---,0.00,VWS V13.01,2013-02-03 19:17:00,
2013-02-03 14:22:00,31.5,-7.2,29.42,NNW,330,0.0,4.0,18,0.00,,---,0.00,VWS V13.01,2013-02-03 19:22:00,
2013-02-03 14:27:00,31.5,-7.2,29.42,NNW,340,0.0,4.0,18,0.00,,---,0.00,VWS V13.01,2013-02-03 19:27:00,
2013-02-03 14:32:00,31.6,-7.0,29.42,NW,326,3.1,6.0,18,0.00,,---,0.00,VWS V13.01,2013-02-03 19:32:00,
2013-02-03 14:38:00,31.5,-7.2,29.42,North,353,0.0,6.0,18,0.00,,---,0.00,VWS V13.01,2013-02-03 19:38:00,
2013-02-03 14:43:00,31.3,-7.3,29.42,WNW,297,0.0,3.6,18,0.00,,---,0.00,VWS V13.01,2013-02-03 19:43:00,
2013-02-03 14:48:00,31.5,-7.2,29.42,NW,304,0.0,3.6,18,0.00,,---,0.00,VWS V13.01,2013-02-03 19:48:00,
2013-02-03 14:53:00,31.6,-7.0,29.42,WNW,300,0.0,3.6,18,0.00,,---,0.00,VWS V13.01,2013-02-03 19:53:00,
2013-02-03 14:58:00,31.8,-6.8,29.42,NW,313,0.0,3.6,18,0.00,,---,0.00,VWS V13.01,2013-02-03 19:58:00,
2013-02-03 15:03:00,31.6,-7.0,29.42,WNW,285,0.0,0.0,18,0.00,,---,0.00,VWS V13.01,2013-02-03 20:03:00,
2013-02-03 15:09:00,31.3,-7.3,29.42,NNW,333,0.0,3.6,18,0.00,,---,0.00,VWS V13.01,2013-02-03 20:09:00,
2013-02-03 15:14:00,31.1,-7.4,29.42,NNW,330,0.0,3.6,18,0.00,,---,0.00,VWS V13.01,2013-02-03 20:14:00,
2013-02-03 15:19:00,30.7,-7.7,29.42,NW,326,0.0,4.0,18,0.00,,---,0.00,VWS V13.01,2013-02-03 20:19:00,
2013-02-03 15:24:00,30.7,-7.7,29.42,WNW,299,3.6,5.1,18,0.00,,---,0.00,VWS V13.01,2013-02-03 20:24:00,
2013-02-03 15:29:00,30.9,-7.6,29.42,NW,309,0.0,5.1,18,0.00,,---,0.00,VWS V13.01,2013-02-03 20:29:00,
2013-02-03 15:34:00,30.9,-7.6,29.42,North,5,0.0,5.1,18,0.00,,---,0.00,VWS V13.01,2013-02-03 20:34:00,
2013-02-03 15:40:00,31.1,-7.4,29.42,NNW,343,0.0,5.1,18,0.00,,---,0.00,VWS V13.01,2013-02-03 20:40:00,
2013-02-03 15:45:00,30.9,-7.6,29.42,NNW,332,0.0,0.0,18,0.00,,---,0.00,VWS V13.01,2013-02-03 20:45:00,
2013-02-03 15:50:00,30.7,-7.7,29.39,WNW,303,0.0,0.0,18,0.00,,---,0.00,VWS V13.01,2013-02-03 20:50:00,
2013-02-03 15:55:00,30.7,-7.7,29.39,NW,312,0.0,5.1,18,0.00,,---,0.00,VWS V13.01,2013-02-03 20:55:00,
2013-02-03 16:00:00,30.6,-7.9,29.39,NNW,341,4.7,4.7,18,0.00,,---,0.00,VWS V13.01,2013-02-03 21:00:00,
2013-02-03 16:05:00,30.2,-8.2,29.39,NNW,346,0.0,4.7,18,0.00,,---,0.00,VWS V13.01,2013-02-03 21:05:00,
2013-02-03 16:10:00,29.7,-8.6,29.39,North,1,2.7,4.7,18,0.00,,---,0.00,VWS V13.01,2013-02-03 21:10:00,
2013-02-03 16:16:00,29.5,-8.8,29.39,ENE,73,3.1,4.7,18,0.00,,---,0.00,VWS V13.01,2013-02-03 21:16:00,
2013-02-03 16:21:00,29.1,-9.1,29.39,North,353,3.1,3.6,18,0.00,,---,0.00,VWS V13.01,2013-02-03 21:21:00,
2013-02-03 16:26:00,28.8,-9.4,29.39,NNW,336,0.0,3.6,18,0.00,,---,0.00,VWS V13.01,2013-02-03 21:26:00,
2013-02-03 16:31:00,28.6,-9.5,29.39,NW,319,0.0,4.0,18,0.00,,---,0.00,VWS V13.01,2013-02-03 21:31:00,
2013-02-03 16:36:00,28.2,-9.8,29.39,North,357,0.0,4.7,18,0.00,,---,0.00,VWS V13.01,2013-02-03 21:36:00,
2013-02-03 16:41:00,28.0,-10.0,29.39,North,10,0.0,3.1,18,0.00,,---,0.00,VWS V13.01,2013-02-03 21:41:00,
2013-02-03 16:46:00,27.9,-10.1,29.39,WNW,300,0.0,4.7,18,0.00,,---,0.00,VWS V13.01,2013-02-03 21:46:00,
2013-02-03 16:52:00,27.7,-10.3,29.39,North,10,0.0,5.1,18,0.00,,---,0.00,VWS V13.01,2013-02-03 21:52:00,
2013-02-03 16:57:00,27.5,-10.4,29.39,NW,309,0.0,5.1,18,0.00,,---,0.00,VWS V13.01,2013-02-03 21:57:00,
2013-02-03 17:02:00,27.3,-10.6,29.39,NW,308,0.0,0.0,18,0.00,,---,0.00,VWS V13.01,2013-02-03 22:02:00,
2013-02-03 17:07:00,27.1,-10.7,29.39,NNW,341,0.0,3.1,18,0.00,,---,0.00,VWS V13.01,2013-02-03 22:07:00,
2013-02-03 17:12:00,27.0,-10.9,29.39,NNW,341,2.7,3.6,18,0.00,,---,0.00,VWS V13.01,2013-02-03 22:12:00,
2013-02-03 17:17:00,27.0,-10.9,29.39,NW,322,4.0,4.0,18,0.00,,---,0.00,VWS V13.01,2013-02-03 22:17:00,
2013-02-03 17:22:00,26.8,-11.0,29.39,NNW,329,3.1,4.5,18,0.00,,---,0.00,VWS V13.01,2013-02-03 22:22:00,
2013-02-03 17:27:00,26.6,-10.1,29.39,WNW,296,0.0,4.5,19,0.00,,---,0.00,VWS V13.01,2013-02-03 22:27:00,
2013-02-03 17:32:00,26.4,-10.2,29.39,NW,311,0.0,6.9,19,0.00,,---,0.00,VWS V13.01,2013-02-03 22:32:00,
2013-02-03 17:38:00,26.1,-10.5,29.39,WNW,289,0.0,6.9,19,0.00,,---,0.00,VWS V13.01,2013-02-03 22:38:00,
2013-02-03 17:43:00,26.1,-10.5,29.39,WNW,303,5.1,5.1,19,0.00,,---,0.00,VWS V13.01,2013-02-03 22:43:00,
2013-02-03 17:48:00,25.9,-10.7,29.42,NW,306,0.0,6.9,19,0.00,,---,0.00,VWS V13.01,2013-02-03 22:48:00,
2013-02-03 17:53:00,25.9,-10.7,29.42,NW,320,4.0,6.9,19,0.00,,---,0.00,VWS V13.01,2013-02-03 22:53:00,
2013-02-03 17:58:00,25.7,-10.9,29.42,NNW,339,0.0,6.9,19,0.00,,---,0.00,VWS V13.01,2013-02-03 22:58:00,
2013-02-03 18:03:00,25.7,-10.9,29.42,NW,304,2.7,4.0,19,0.00,,---,0.00,VWS V13.01,2013-02-03 23:03:00,
2013-02-03 18:08:00,25.5,-11.0,29.42,WNW,303,0.0,4.0,19,0.00,,---,0.00,VWS V13.01,2013-02-03 23:08:00,
2013-02-03 18:13:00,25.3,-11.1,29.42,WNW,298,0.0,4.0,19,0.00,,---,0.00,VWS V13.01,2013-02-03 23:13:00,
2013-02-03 18:19:00,25.2,-11.3,29.42,WNW,303,0.0,4.0,19,0.00,,---,0.00,VWS V13.01,2013-02-03 23:19:00,
2013-02-03 18:24:00,25.2,-11.3,29.42,WNW,299,0.0,0.0,19,0.00,,---,0.00,VWS V13.01,2013-02-03 23:24:00,
2013-02-03 18:29:00,24.8,-11.6,29.42,WNW,299,0.0,0.0,19,0.00,,---,0.00,VWS V13.01,2013-02-03 23:29:00,
2013-02-03 18:34:00,24.6,-11.8,29.42,WNW,299,0.0,0.0,19,0.00,,---,0.00,VWS V13.01,2013-02-03 23:34:00,
2013-02-03 18:39:00,24.4,-11.9,29.42,WNW,299,0.0,0.0,19,0.00,,---,0.00,VWS V13.01,2013-02-03 23:39:00,
2013-02-03 18:44:00,24.4,-11.9,29.42,WNW,299,0.0,0.0,19,0.00,,---,0.00,VWS V13.01,2013-02-03 23:44:00,
2013-02-03 18:49:00,24.3,-12.1,29.39,WNW,299,0.0,0.0,19,0.00,,---,0.00,VWS V13.01,2013-02-03 23:49:00,
2013-02-03 18:54:00,24.1,-12.2,29.39,WNW,299,0.0,0.0,19,0.00,,---,0.00,VWS V13.01,2013-02-03 23:54:00,
2013-02-03 19:00:00,24.1,-12.2,29.39,WNW,299,0.0,0.0,19,0.00,,---,0.00,VWS V13.01,2013-02-04 00:00:00,
2013-02-03 19:05:00,23.9,-12.4,29.42,WNW,299,0.0,0.0,19,0.00,,---,0.00,VWS V13.01,2013-02-04 00:05:00,
2013-02-03 19:10:00,23.7,-12.5,29.42,WNW,299,0.0,0.0,19,0.00,,---,0.00,VWS V13.01,2013-02-04 00:10:00,
2013-02-03 19:15:00,23.5,-12.6,29.42,WNW,299,0.0,0.0,19,0.00,,---,0.00,VWS V13.01,2013-02-04 00:15:00,
2013-02-03 19:20:00,23.5,-12.6,29.42,WNW,299,0.0,0.0,19,0.00,,---,0.00,VWS V13.01,2013-02-04 00:20:00,
2013-02-03 19:25:00,23.4,-12.8,29.42,WNW,298,0.0,0.0,19,0.00,,---,0.00,VWS V13.01,2013-02-04 00:25:00,
2013-02-03 19:30:00,23.4,-12.8,29.42,WNW,298,0.0,0.0,19,0.00,,---,0.00,VWS V13.01,2013-02-04 00:30:00,
2013-02-03 19:35:00,23.2,-12.9,29.42,WNW,298,0.0,0.0,19,0.00,,---,0.00,VWS V13.01,2013-02-04 00:35:00,
2013-02-03 19:41:00,23.0,-12.1,29.42,WNW,298,0.0,0.0,20,0.00,,---,0.00,VWS V13.01,2013-02-04 00:41:00,
2013-02-03 19:46:00,22.8,-12.2,29.42,WNW,298,0.0,0.0,20,0.00,,---,0.00,VWS V13.01,2013-02-04 00:46:00,
2013-02-03 19:51:00,22.8,-12.2,29.42,WNW,298,0.0,0.0,20,0.00,,---,0.00,VWS V13.01,2013-02-04 00:51:00,
2013-02-03 19:56:00,22.8,-12.2,29.42,WNW,298,0.0,0.0,20,0.00,,---,0.00,VWS V13.01,2013-02-04 00:56:00,
2013-02-03 20:01:00,22.8,-12.2,29.42,WNW,297,0.0,0.0,20,0.00,,---,0.00,VWS V13.01,2013-02-04 01:01:00,
2013-02-03 20:06:00,22.6,-12.4,29.42,WNW,297,0.0,0.0,20,0.00,,---,0.00,VWS V13.01,2013-02-04 01:06:00,
2013-02-03 20:11:00,22.6,-12.4,29.42,WNW,297,0.0,0.0,20,0.00,,---,0.00,VWS V13.01,2013-02-04 01:11:00,
2013-02-03 20:16:00,22.5,-12.5,29.42,WNW,297,0.0,0.0,20,0.00,,---,0.00,VWS V13.01,2013-02-04 01:16:00,
2013-02-03 20:21:00,22.3,-12.7,29.42,WNW,297,0.0,0.0,20,0.00,,---,0.00,VWS V13.01,2013-02-04 01:21:00,
2013-02-03 20:27:00,22.3,-12.7,29.42,WNW,297,0.0,0.0,20,0.00,,---,0.00,VWS V13.01,2013-02-04 01:27:00,
2013-02-03 20:32:00,22.3,-10.8,29.42,WNW,296,0.0,0.0,22,0.00,,---,0.00,VWS V13.01,2013-02-04 01:32:00,
2013-02-03 20:37:00,22.3,-10.8,29.42,WNW,296,0.0,0.0,22,0.00,,---,0.00,VWS V13.01,2013-02-04 01:37:00,
2013-02-03 20:42:00,22.1,-10.9,29.42,WNW,294,0.0,0.0,22,0.00,,---,0.00,VWS V13.01,2013-02-04 01:42:00,
2013-02-03 20:47:00,22.1,-10.9,29.42,WNW,291,0.0,0.0,22,0.00,,---,0.00,VWS V13.01,2013-02-04 01:47:00,
2013-02-03 20:52:00,21.9,-11.1,29.42,WNW,291,0.0,0.0,22,0.00,,---,0.00,VWS V13.01,2013-02-04 01:52:00,
2013-02-03 20:57:00,21.9,-11.1,29.42,WNW,291,0.0,0.0,22,0.00,,---,0.00,VWS V13.01,2013-02-04 01:57:00,
2013-02-03 21:02:00,21.7,-11.2,29.42,WNW,291,0.0,0.0,22,0.00,,---,0.00,VWS V13.01,2013-02-04 02:02:00,
2013-02-03 21:08:00,21.7,-11.2,29.42,WNW,291,0.0,0.0,22,0.00,,---,0.00,VWS V13.01,2013-02-04 02:08:00,
2013-02-03 21:13:00,21.7,-11.2,29.42,WNW,291,0.0,0.0,22,0.00,,---,0.00,VWS V13.01,2013-02-04 02:13:00,
2013-02-03 21:18:00,21.6,-11.4,29.42,WNW,290,0.0,0.0,22,0.00,,---,0.00,VWS V13.01,2013-02-04 02:18:00,
2013-02-03 21:23:00,21.6,-11.4,29.42,WNW,291,0.0,0.0,22,0.00,,---,0.00,VWS V13.01,2013-02-04 02:23:00,
2013-02-03 21:28:00,21.2,-11.7,29.42,WNW,291,0.0,0.0,22,0.00,,---,0.00,VWS V13.01,2013-02-04 02:28:00,
2013-02-03 21:33:00,21.2,-11.7,29.42,WNW,291,0.0,0.0,22,0.00,,---,0.00,VWS V13.01,2013-02-04 02:33:00,
2013-02-03 21:38:00,21.0,-11.9,29.42,WNW,291,0.0,0.0,22,0.00,,---,0.00,VWS V13.01,2013-02-04 02:38:00,
2013-02-03 21:43:00,20.8,-12.0,29.42,WNW,291,0.0,0.0,22,0.00,,---,0.00,VWS V13.01,2013-02-04 02:43:00,
2013-02-03 21:49:00,20.7,-12.2,29.42,WNW,291,0.0,0.0,22,0.00,,---,0.00,VWS V13.01,2013-02-04 02:49:00,
2013-02-03 21:54:00,20.5,-12.3,29.42,WNW,291,0.0,0.0,22,0.00,,---,0.00,VWS V13.01,2013-02-04 02:54:00,
2013-02-03 21:59:00,20.3,-12.5,29.42,WNW,291,0.0,0.0,22,0.00,,---,0.00,VWS V13.01,2013-02-04 02:59:00,
2013-02-03 22:04:00,20.3,-12.5,29.42,WNW,291,0.0,0.0,22,0.00,,---,0.00,VWS V13.01,2013-02-04 03:04:00,
2013-02-03 22:09:00,20.3,-12.5,29.42,WNW,291,0.0,0.0,22,0.00,,---,0.00,VWS V13.01,2013-02-04 03:09:00,
2013-02-03 22:14:00,20.3,-12.5,29.42,WNW,291,0.0,0.0,22,0.00,,---,0.00,VWS V13.01,2013-02-04 03:14:00,
2013-02-03 22:19:00,20.3,-12.5,29.42,WNW,291,0.0,0.0,22,0.00,,---,0.00,VWS V13.01,2013-02-04 03:19:00,
2013-02-03 22:24:00,20.5,-12.3,29.42,WNW,291,0.0,0.0,22,0.00,,---,0.00,VWS V13.01,2013-02-04 03:24:00,
2013-02-03 22:30:00,20.5,-12.3,29.42,WNW,291,0.0,0.0,22,0.00,,---,0.00,VWS V13.01,2013-02-04 03:30:00,
2013-02-03 22:35:00,20.5,-12.3,29.42,WNW,291,0.0,0.0,22,0.00,,---,0.00,VWS V13.01,2013-02-04 03:35:00,
2013-02-03 22:40:00,20.5,-12.3,29.42,WNW,291,0.0,0.0,22,0.00,,---,0.00,VWS V13.01,2013-02-04 03:40:00,
2013-02-03 22:45:00,20.5,-12.3,29.42,WNW,291,0.0,0.0,22,0.00,,---,0.00,VWS V13.01,2013-02-04 03:45:00,
2013-02-03 22:50:00,20.5,-12.3,29.42,WNW,291,0.0,0.0,22,0.00,,---,0.00,VWS V13.01,2013-02-04 03:50:00,
2013-02-03 22:55:00,20.5,-12.3,29.42,WNW,291,0.0,0.0,22,0.00,,---,0.00,VWS V13.01,2013-02-04 03:55:00,
2013-02-03 23:00:00,20.3,-12.5,29.42,WNW,291,0.0,0.0,22,0.00,,---,0.00,VWS V13.01,2013-02-04 04:00:00,
2013-02-03 23:05:00,20.1,-12.6,29.42,WNW,291,0.0,0.0,22,0.00,,---,0.00,VWS V13.01,2013-02-04 04:05:00,
2013-02-03 23:11:00,19.8,-12.9,29.42,WNW,291,0.0,0.0,22,0.00,,---,0.00,VWS V13.01,2013-02-04 04:11:00,
2013-02-03 23:16:00,19.6,-10.5,29.42,WNW,291,0.0,0.0,25,0.00,,---,0.00,VWS V13.01,2013-02-04 04:16:00,
2013-02-03 23:21:00,19.9,-10.2,29.42,WNW,291,0.0,0.0,25,0.00,,---,0.00,VWS V13.01,2013-02-04 04:21:00,
2013-02-03 23:26:00,20.1,-10.1,29.42,WNW,291,0.0,0.0,25,0.00,,---,0.00,VWS V13.01,2013-02-04 04:26:00,
2013-02-03 23:31:00,20.3,-9.9,29.42,WNW,291,0.0,0.0,25,0.00,,---,0.00,VWS V13.01,2013-02-04 04:31:00,
2013-02-03 23:36:00,20.3,-9.9,29.42,WNW,291,0.0,0.0,25,0.00,,---,0.00,VWS V13.01,2013-02-04 04:36:00,
2013-02-03 23:41:00,20.3,-9.9,29.42,WNW,291,0.0,0.0,25,0.00,,---,0.00,VWS V13.01,2013-02-04 04:41:00,
2013-02-03 23:47:00,20.5,-9.7,29.42,WNW,291,0.0,0.0,25,0.00,,---,0.00,VWS V13.01,2013-02-04 04:47:00,
2013-02-03 23:52:00,20.7,-9.6,29.42,WNW,291,0.0,0.0,25,0.00,,---,0.00,VWS V13.01,2013-02-04 04:52:00,
2013-02-03 23:57:00,20.8,-9.4,29.42,WNW,291,0.0,0.0,25,0.00,,---,0.00,VWS V13.01,2013-02-04 04:57:00,